Погода в Витебске

Погода в Витебске : погода сейчас, прогноз погоды и архив. Всё, что Вы хотите узнать о погоде в Витебске!

Поиск расширенной информации на нашем сайте:

Другие новости

Новости СМИ2

Главная страница сайта

Новости сайта

03.07.2017

Напоминаем, что на нашем специализированном сайте Метеоцентр.Азия вы можете получить высокодетализированные автоматические прогнозы погоды по пунктам России, СНГ и мира в авиационном формате (включающие направление и скорость ветра, видимость, явления погоды, количество и форму облачности, нижнюю и верхнюю границу облачности).

Рекомендуем: Изготовление информационных табличек изготовление табличек ростов.

Погода в Витебске - сегодня

Время (UTC), дата Ветер
(°,м/с) 
Видим.   Явления Облачность Т
(°С)
Тd
(°С)
f(%) Тe
(°С)
Pmin
(гПа)
dP
(гПа)
Po
(мм)
O2
(г/м3)
Тmin Tmax R s Состояние
почвы
21 17.08.18 тихо ()   6000 м  дымка  ясно 
+14.6 +13.9 96 +21  1021.7  0.3  751  284           
00 18.08.18 тихо ()   8000 м  дымка  ясно 
+13.5 +12.9 96 +19  1021.7  751  286           
03 18.08.18 тихо ()   8000 м  дымка  6/3 1000 м верхняя 
[Sc|Ci sp]
+12.2 +11.6 96 +16  1022  0.1  751  287           
06 18.08.18 тихо ()   10 км    3/1 1000 м верхняя 
[Sc|Ci fib]
+20.3 +13.4 65 +26  1021  -0.3  750  279  +12.2         
09 18.08.18 190 (Ю) 10 км    3/0 верхняя 
[Ci fib]
+24 +13.6 52 +30  1020.5  -0.2  750  275           
12 18.08.18 140 (ЮВ) 10 км    9/5 1000 м средняя 
[Cu med, cong|Ac trans]
+24 +13.8 53 +31  1020  -0.5  750  275           
15 18.08.18 тихо ()   10 км    9/5 1000 м средняя 
[Sc|Ac trans]
+23.3 +15 60 +32  1018.9  -1.1  749  275           
18 18.08.18 тихо ()   10 км    9/8 1140 м кучево-дожд., средняя 
[Cb cap|Ac trans]
+21.5 +16 71 +32  1018.8  -0.2  749  276    +25.9       
21 18.08.18 170 (Ю) 10 км  {ливн. осадки}  9/9 1080 м 
[Sc]
+20.1 +16.4 79 +31  1018.7  -0.3  749  277      0.0     
00 19.08.18 170 (Ю) 10 км  {ливн. осадки}  8/8 500 м 
[Sc]
+18.1 +16.3 89 +30  1018.5  -0.3  748  279           
03 19.08.18 230 (ЮЗ) 7000 м  дымка  10/10 180 м 
[St]
+18 +16.7 92 +31  1018.4  -0.1  748  279      0.0     
06 19.08.18 220 (ЮЗ) 10 км    9/8 240 м средняя 
[St|Ac trans]
+19.9 +17 83 +33  1018.5  0.2  749  277  +17.9    0.0     
09 19.08.18 220 (ЮЗ) 10 км    8/8 600 м 
[Sc]
+24.3 +17.8 67 +38  1017.6  -0.5  748  273           
12 19.08.18 230 (ЮЗ) 10 км    5/5 1000 м 
[Cu med, cong]
+25.5 +16.1 56 +36  1016.4  -1.1  747  272           
15 19.08.18 270 (З) 10 км    8/3 1000 м верхняя 
[Cu med, cong|Ci]
+24.6 +13.1 49 +30  1016.4  -0.1  747  274           
18 19.08.18 тихо ()   10 км    8/0 средняя, верхняя 
[Ac trans|Ci fib]
+17.9 +11.4 66 +21  1017.7  0.8  748  281    +26.6       
21 19.08.18 240 (ЮЗ) 10 км    ясно 
+17.6 +12.5 72 +24  1017.5  -0.2  748  281           
00 20.08.18 220 (ЮЗ) 10 км    8/0 средняя 
[Ac trans]
+16.7 +12.8 78 +23  1017.6  748  281           
03 20.08.18 210 (ЮЗ) 10 км    9/0 средняя 
[Ac trans]
+15.8 +13 83 +22  1017.1  -0.6  747  282           
06 20.08.18 220 (ЮЗ) 10 км  {ливн. осадки}  9/0 средняя 
[Ac trans]
+17.7 +13.4 76 +25  1016.6  -0.3  747  280  +15.7    0.0     
09 20.08.18 240 (ЮЗ) 10 км    8/0 средняя, верхняя 
[Ac trans|Cs]
+22.4 +14.4 61 +30  1015.8  -0.4  747  275           
12 20.08.18 230 (ЮЗ) 10 км    8/4 1000 м верхняя 
[Cu med, cong|Cc]
+23.8 +13.6 53 +30  1014.2  -1.5  746  274           
15 20.08.18 190 (Ю) 10 км    9/0 средняя, верхняя 
[Ac trans|Cs]
+24.2 +14.5 55 +32  1012  -2.1  744  272           
18 20.08.18 180 (Ю) 10 км    9/0 средняя, верхняя 
[Ac As|Cs]
+21.8 +15.7 68 +32  1010.4  -1.8  743  274    +25.1       
21 20.08.18 190 (Ю) 10 км    5/0 верхняя 
[Cs]
+20 +16.7 81 +32  1008.3  -2.2  741  274           
Время (UTC), дата Ветер
(°,м/с) 
Видим.   Явления Облачность Т
(°С)
Тd
(°С)
f(%) Тe
(°С)
Pmin
(гПа)
dP
(гПа)
Po
(мм)
O2
(г/м3)
Тmin Tmax R s Состояние
почвы

Для получения пояснительной информации подведите курсор к названию столбца.

ПОГОДА в Витебске - архив

Всё, что Вы хотите узнать о погоде в Витебске - удобно и подробно!

Выберите нужную дату (начиная с 1 января 2015* года) и нажмите кнопку "Найти".
Будут отображены архивные сводки погоды по пункту Витебск, начиная с указанной даты.


Отображать данные в формате CSV (для использования в таблицах Excel)


Внимание! Наш архив погоды предназначен исключительно для личного некоммерческого использования в познавательных целях. Если Вам необходимы официальные справки о состоянии погоды (для производственных, юридических, коммерческих и т.п. целей), обращайтесь в органы Росгидромета.

*Примечание: данная дата относится к архиву по метеостанциям СССР (Россия, СНГ, Балтия).
Архив по метеостанциям Зарубежной Европы и Азии (кроме Китая) хранится 10 дней, по другим регионам земного шара (Китай, Африка, Америка, Австралия, Океания) - 1 день.

Витебск - район местоположения метеостанции


Название, широта, долгота, высота метеостанции:
Витебск (город) 55.1°ш. 30.3°д. 170 м над ур. моря [Беларусь]

Дополнительная информация

В oтличие oт бoльшинства пoгoдных сайтoв мы публикуем пoдрoбную метеoинфoрмацию в детальнoм прoфессиoнальнoм фoрмате.

Характеристики температуры и влажнoсти вoздуха измеряются на высoте 2 м в тени вдали oт зданий и деревьев.
Скoрoсть ветра измеряется на высoте 10 м (на урoвне рoста челoвека скoрoсть ветра ниже в 1.5-2 раза). Если метеoстанция нахoдится в гoрoде или в лесу, тo скoрoсть ветра занижена на 2-4 м/с пo сравнению с oткрытым местoм. Скoрoсть ветра над акватoриями крупных рек и oзёр, а также на вершинах хoлмoв на 2-5 м/с выше, чем в oбычных услoвиях.
Атмoсфернoе давление в разных тoчках местнoсти мoжет значительнo oтличаться oт давления на метеoстанции, в зависимoсти oт услoвий рельефа (при пoдъёме на 10 м давление пoнижается примернo на 1 мм рт.ст.).